Find SPOT 3

NORAD ID: 22823 Int'l Des: 1993-061 Owner: CNES Country: F operational
LEOCIRCULARRETROGRADESSO

实时位置

正在加载3D地球...

关于 SPOT 3

正在加载描述...

即将过境

Passes for default location (London). Set your location on the main map for personalized predictions.

高度历史

Loading altitude history...

两行轨道根数

1 22823U 93061A 26106.44928903 .00000054 00000-0 46280-4 0 9993
2 22823 98.8615 170.3962 0017618 62.1034 298.1924 14.20076892685815
Epoch: Apr 16, 2026 • Age: 11 hours

当前状态

高度 838.0 km
速度 7.43 km/s
星下点 -10.36°S, 176.87°E
发射日期 Sep 26, 1993
运行时间 32.5 years
类型 earth observation

技术详情

分类 Payload
质量 1900.00 kg
干质量 1750.00 kg
总质量 1900.00 kg
长度 4.50 m
直径 2.00 m
跨度 8.20 m
形状 Box + Pan
制造商 MMST
平台类型 SPOT
阶段状态 In Orbit
所有者/国家 CNES/F

Most Searched